Avoca, PA

5:32 AM EST on December 13, 2019 (GMT -0500)
Wilkes-Barre-Scranton International

Weather History for KAVP - November, 2019

Change the Weather History Date:

Saturday, November 16, 2019

  Actual Average Record
Temperature  
Mean Temperature 33 °F 41 °F  
Max Temperature 40 °F 49 °F 69 °F (1928)
Min Temperature 26 °F 33 °F 11 °F (1933)
Degree Days  
Heating Degree Days 32 24  
Month to date heating degree days 433 340  
Since 1 July heating degree days 755 943  
Cooling Degree Days 0 0  
Month to date cooling degree days 0 0  
Year to date cooling degree days 846 580  
Moisture  
Dew Point 4 °F    
Average Humidity 32    
Maximum Humidity 64    
Minimum Humidity 15    
Precipitation  
Precipitation 0.00 in 0.11 in 3.00 in (2006)
Month to date precipitation 0.75 1.64  
Year to date precipitation 45.98 34.08  
Sea Level Pressure  
Sea Level Pressure 30.41 in    
Wind  
Wind Speed 8 mph ()    
Max Wind Speed 22 mph    
Max Gust Speed 30 mph    
Visibility 10.0 miles    
Events      
T = Trace of Precipitation, MM = Missing Value Source: Averaged Metar Reports

Daily Weather History Graph

Daily Weather History Graph

Search for Another Location

Airport or City:

Astronomy

Nov. 16, 2019 Rise Set
Actual Time 6:52 AM EST 4:42 PM EST
Civil Twilight 6:22 AM EST 5:12 PM EST
Nautical Twilight 5:48 AM EST 5:45 PM EST
Astronomical Twilight 5:16 AM EST 6:18 PM EST
Moon 8:12 PM EST (11/16) 10:45 AM EST (11/16)
Length of Visible Light 10h 50m
Length of Day
9h 50m
Waning Gibbous, 82% of the Moon is Illuminated
Nov 16
Waning Gibbous
Nov 19
Last Quarter
Nov 26
New
Dec 4
First Quarter
Dec 12
Full

Hourly Weather History & Observations

Time (EST) Temp. Windchill Dew Point Humidity Pressure Visibility Wind Dir Wind Speed Gust Speed Precip Events Conditions
12:54 AM 36.0 °F 30.3 °F 24.1 °F 62% 30.28 in 10.0 mi NNW 6.9 mph - N/A   Overcast
1:54 AM 36.0 °F 29.0 °F 23.0 °F 59% 30.30 in 10.0 mi North 9.2 mph - N/A   Overcast
2:54 AM 35.1 °F 25.2 °F 19.9 °F 54% 30.30 in 10.0 mi North 16.1 mph 23.0 mph N/A   Overcast
3:54 AM 33.1 °F 23.4 °F 18.0 °F 54% 30.32 in 10.0 mi NNE 13.8 mph 23.0 mph N/A   Mostly Cloudy
4:54 AM 30.0 °F 21.1 °F 15.1 °F 54% 30.35 in 10.0 mi North 10.4 mph - N/A   Clear
5:54 AM 28.0 °F 18.6 °F 12.9 °F 53% 30.39 in 10.0 mi NNE 10.4 mph - N/A   Clear
6:54 AM 27.0 °F 18.0 °F 9.0 °F 47% 30.43 in 10.0 mi NNE 9.2 mph - N/A   Clear
7:54 AM 28.0 °F 18.6 °F 7.0 °F 41% 30.46 in 10.0 mi NE 10.4 mph - N/A   Clear
8:54 AM 30.0 °F 21.7 °F 6.1 °F 36% 30.48 in 10.0 mi NNE 9.2 mph - N/A   Clear
9:54 AM 33.1 °F 24.4 °F 5.0 °F 31% 30.48 in 10.0 mi North 11.5 mph - N/A   Clear
10:54 AM 35.1 °F 29.3 °F 1.9 °F 25% 30.48 in 10.0 mi NE 6.9 mph - N/A   Clear
11:54 AM 37.0 °F 28.9 °F 1.0 °F 22% 30.45 in 10.0 mi NE 12.7 mph 18.4 mph N/A   Clear
12:54 PM 39.0 °F 32.3 °F -2.9 °F 17% 30.42 in 10.0 mi NE 10.4 mph 17.3 mph N/A   Clear
1:54 PM 39.0 °F 31.8 °F -4.0 °F 16% 30.41 in 10.0 mi NE 11.5 mph - N/A   Clear
2:54 PM 39.0 °F 34.0 °F -5.1 °F 15% 30.40 in 10.0 mi East 6.9 mph - N/A   Clear
3:54 PM 39.0 °F 36.8 °F -6.0 °F 15% 30.41 in 10.0 mi Variable 3.5 mph - N/A   Clear
4:54 PM 36.0 °F 33.3 °F -6.0 °F 17% 30.42 in 10.0 mi ESE 3.5 mph - N/A   Clear
5:54 PM 33.1 °F 28.7 °F -5.1 °F 19% 30.43 in 10.0 mi SE 4.6 mph - N/A   Clear
6:54 PM 32.0 °F - -2.0 °F 23% 30.45 in 10.0 mi Calm Calm - N/A   Clear
7:54 PM 33.1 °F 25.5 °F -8.0 °F 17% 30.45 in 10.0 mi East 9.2 mph - N/A   Clear
8:54 PM 30.9 °F 26.2 °F -6.0 °F 20% 30.45 in 10.0 mi NE 4.6 mph - N/A   Clear
9:54 PM 28.9 °F 25.2 °F -4.0 °F 24% 30.43 in 10.0 mi NE 3.5 mph - N/A   Clear
11:54 PM 28.0 °F 22.8 °F -4.0 °F 25% 30.42 in 10.0 mi ENE 4.6 mph - N/A   Clear